This is the latest recevied weather packets stored in our database for station/object OZ1IEP-5. If no packets are shown the sender has not sent any weather packets the latest 10 day(s).
| Time | Temp. | Humidity | Pressure | Rain* | Wind** | Luminosity | Snow |
|---|---|---|---|---|---|---|---|
| 1787642405 | 15.56° C | 94% | 1019.3 hPa | 0 mm | - | 160 W/m² | - |
| 1787641806 | 15° C | 93% | 1019.3 hPa | 0 mm | - | 53 W/m² | - |
| 1787641209 | 15° C | 93% | 1019.2 hPa | 0 mm | - | 33 W/m² | - |
| 1787640606 | 15° C | 94% | 1019.2 hPa | 0 mm | - | 60 W/m² | - |
| 1787640006 | 15° C | 94% | 1019.2 hPa | 0 mm | - | 35 W/m² | - |
| 1787639409 | 15° C | 93% | 1019.2 hPa | 0 mm | - | 30 W/m² | - |
| 1787638806 | 14.44° C | 93% | 1019 hPa | 0 mm | - | 30 W/m² | - |
| 1787638206 | 14.44° C | 93% | 1019.2 hPa | 0 mm | - | 28 W/m² | - |
| 1787637608 | 13.89° C | 94% | 1019.3 hPa | 0 mm | - | 26 W/m² | - |
| 1787637005 | 13.89° C | 93% | 1019.2 hPa | 0 mm | - | 25 W/m² | - |
| 1787636406 | 13.33° C | 93% | 1019.2 hPa | 0 mm | - | 23 W/m² | - |
| 1787635808 | 13.89° C | 93% | 1019.1 hPa | 0 mm | - | 21 W/m² | - |
| 1787635206 | 13.33° C | 93% | 1018.9 hPa | 0 mm | - | 19 W/m² | - |
| 1787634606 | 13.33° C | 93% | 1018.9 hPa | 0 mm | - | 19 W/m² | - |
| 1787634008 | 13.33° C | 93% | 1018.9 hPa | 0 mm | - | 18 W/m² | - |
| 1787633406 | 12.78° C | 93% | 1018.8 hPa | 0 mm | - | 16 W/m² | - |
| 1787632805 | 12.78° C | 93% | 1018.8 hPa | 0 mm | - | 14 W/m² | - |
| 1787632208 | 12.78° C | 93% | 1018.8 hPa | 0 mm | - | 11 W/m² | - |
| 1787631607 | 12.78° C | 93% | 1018.8 hPa | 0 mm | - | 7 W/m² | - |
| 1787631007 | 12.78° C | 93% | 1018.8 hPa | 0 mm | - | 0 W/m² | - |
| 1787630411 | 12.78° C | 93% | 1018.8 hPa | 0 mm | - | 0 W/m² | - |
| 1787629809 | 12.78° C | 93% | 1018.8 hPa | 0 mm | - | 0 W/m² | - |
| 1787629206 | 13.33° C | 93% | 1018.8 hPa | 0 mm | - | 0 W/m² | - |
| 1787628609 | 12.78° C | 93% | 1018.8 hPa | 0 mm | - | 0 W/m² | - |
| 1787628006 | 12.78° C | 93% | 1018.8 hPa | 0 mm | - | 0 W/m² | - |
* Rain latest hour (hover to see other rain measurements)
** Current wind speed in m/s (hover to see current wind gust speed)